Regional Weather Roundup
Issued by NWS

Home | Current Version | Previous Version | Text Only | Print | Product List | Glossary Off
Versions: 1 2 3 4 5 6 7 8 9 10 11 12 13 14 15 16 17 18 19 20 21 22 23 24 25 26 27 28 29 30 31 32 33 34 35 36 37 38 39 40 41 42 43 44 45 46 47 48 49 50

000
ASUS43 KMKX 040121
RWRWI

WISCONSIN REGIONAL WEATHER ROUNDUP
NATIONAL WEATHER SERVICE MILWAUKEE/SULLIVAN WI
800 PM CDT SUN MAY 03 2015

NOTE: "FAIR" INDICATES FEW OR NO CLOUDS BELOW 12,000 FEET WITH NO
SIGNIFICANT WEATHER AND/OR OBSTRUCTIONS TO VISIBILITY.

WIZ001-002-006>008-014>016-023>028-040200-
NORTHWEST WISCONSIN

CITY           SKY/WX    TMP DP  RH WIND       PRES   REMARKS
SUPERIOR ARPT  PTCLDY    58  49  71 W3        29.83F
ASHLAND        LGT RAIN  58  49  72 S5        29.86S
HAYWARD        CLOUDY    61  46  57 NE8       29.86S
SIREN          MOCLDY    63  43  47 NE3       29.86R
CUMBERLAND     CLOUDY    61  39  44 NE13      29.86R
RICE LAKE      LGT RAIN  61  45  56 N7        29.87R
CHETEK         LGT RAIN  60  56  86 E8        29.87S
LADYSMITH      TSTM      64  51  64 N7        29.90R
EAU CLAIRE     TSTM      59  55  87 E14       29.83F
MENOMONIE      LGT RAIN  57  57  98 N9G18     29.83S
NEW RICHMOND   CLOUDY    62  47  58 NE8       29.83F
OSCEOLA        MOCLDY    65  43  43 N10G17    29.85F
$$

WIZ003>005-009-010-017-018-040200-
NORTH CENTRAL WISCONSIN

CITY           SKY/WX    TMP DP  RH WIND       PRES   REMARKS
MANITOWISH WTR MOCLDY    63  43  49 N9G16     29.87R
ARBOR VITAE    CLOUDY    62  53  73 NW5       29.86R
WOODRUFF       CLOUDY    62  53  73 NW5       29.86R
RHINELANDER    LGT RAIN  58  54  86 N3        29.86R
EAGLE RIVER    CLOUDY    58  57  97 CALM      29.84S
LAND O LAKES   CLOUDY    61  57  87 NW9       29.85R
PHILLIPS       CLOUDY    65  51  60 NW3       29.88R
TOMAHAWK       HVY RAIN  58  55  90 NW8       29.88R
MEDFORD        CLOUDY    67  51  56 N21G29    29.84R THUNDER
MERRILL        MOCLDY    73  52  48 NW8       29.81R
$$

WIZ029-030-035-036-043>047-040200-
CENTRAL WISCONSIN

CITY           SKY/WX    TMP DP  RH WIND       PRES   REMARKS
WAUSAU         MOCLDY    74  52  46 SW6       29.78R
MOSINEE        NOT AVBL
MARSHFIELD     MOCLDY    71  53  52 SE6       29.79R
STEVENS POINT  PTCLDY    72  52  49 S9        29.81R
WAUPACA        CLEAR     72  53  51 S10       29.81R
WAUTOMA        CLEAR     71  55  56 S8        29.83R
WISC RAPIDS    PTCLDY    73  51  46 S8        29.81R
CAMP DOUGLAS   PTCLDY    72  56  57 S10       29.78S
$$

WIZ011>013-019>022-031-037>040-048>050-040200-
NORTHEAST WISCONSIN

CITY           SKY/WX    TMP DP  RH WIND       PRES   REMARKS
ANTIGO         CLOUDY    69  52  55 W5        29.81R
SHAWANO        CLEAR     75  51  42 S8        29.79R
OCONTO         CLEAR     73  55  53 SW9       29.77R
STURGEON BAY   CLEAR     66  50  55 SW12      29.82S
GREEN BAY      CLEAR     72  54  53 S17G23    29.80R
MANITOWOC      CLEAR     71  55  56 S13       29.83S
APPLETON       PTCLDY    70  52  52 S17       29.82R
CLINTONVILLE   CLEAR     72  50  46 S13G18    29.78R
OSHKOSH        CLEAR     68  52  56 S10G22    29.82S
$$

WIZ032>034-041-042-053>061-040200-
SOUTHWEST WISCONSIN

CITY           SKY/WX    TMP DP  RH WIND       PRES   REMARKS
LA CROSSE      CLOUDY    79  56  45 S9        29.76R HX  80
SPARTA         MOCLDY    74  54  49 S10       29.79R
VIROQUA        CLOUDY    71  56  59 S9        29.81R
BOSCOBEL       CLEAR     73  58  59 CALM      29.79F
PRAIRIE DU CHI PTCLDY    73  56  53 E5        29.79R
PLATTEVILLE    PTCLDY    68  59  74 SE10      29.83S
$$

WIZ056-057-062-063-064-067-068-040200-
SOUTH CENTRAL WISCONSIN

CITY           SKY/WX    TMP DP  RH WIND       PRES   REMARKS
REEDSBURG      CLEAR     68  57  66 S7        29.81S
BARABOO/DELLS  NOT AVBL
LONE ROCK      CLEAR     69  57  65 S8        29.81F
MINERAL POINT  CLEAR     66  59  77 SE12      29.83F
MADISON        PTCLDY    68  55  63 S12       29.84F
MIDDLETON      CLEAR     69  53  56 S12G20    29.84F
WATERTOWN      CLEAR     66  55  67 S8G17     29.85F
MONROE         CLEAR     61  57  88 SE12      29.85F
JANESVILLE     CLEAR     66  55  68 S12       29.86F
$$

WIZ051-052-058>065-066-070>072-040200-
SOUTHEAST WISCONSIN

CITY           SKY/WX    TMP DP  RH WIND       PRES   REMARKS
MILWAUKEE      MOCLDY    67  53  61 S14       29.88F
WAUKESHA       CLEAR     64  54  68 SW12G29   29.89F
MILWAUKEE/TIMM CLEAR     66  50  55 S13G21    29.88F
RACINE         CLOUDY    66  55  67 S12G21    29.91F
BURLINGTON     PTCLDY    61  55  82 S7        29.89S
KENOSHA        MOCLDY    63  58  83 S12       29.91F
FOND DU LAC    CLEAR     68  53  58 S17       29.83S
SHEBOYGAN      CLEAR     68  53  58 S16       29.84F
WEST BEND      CLEAR     64  48  55 S8        29.86F
JUNEAU         CLEAR     66  53  63 S13       29.86F
$$

LSZ147-162-040200-
LAKE SUPERIOR

STATION/POSITION TIME  TEMP    WIND        PRES    WAVE
                       AIR SEA DIR/SP/G            HT/PER
                 (UTC) (F)     (DEG/KT/KT) (MB)    (FT/S)
W MID LAKE BUOY  0050   46 36  280/  8/  8 1009.8R   1/ 3
DEVILS ISLAND    0100   61     200/  8/  8 1009.5F
PORT WING        0000   57     180/  3/  5 1010.8F
SAXON HARBOR     0100   58      CALM  / 13 1011.5R
$$

LMZ867-665-643>646-040200-
LAKE MICHIGAN

STATION/POSITION TIME  TEMP    WIND        PRES    WAVE
                       AIR SEA DIR/SP/G            HT/PER
                 (UTC) (F)     (DEG/KT/KT) (MB)    (FT/S)
CHAMBERS ISLAND  0000   71     160/  5/ 11 1008.1F
NORTHPORT PIER   0001   59     160/  7/ 21 1008.8F
KEWAUNEE LAKESHO 0100   50     190/ 12/ 14 1008.8F
SHEBOYGAN LAKESH 0100   65     180/ 19/ 20 1010.4F
PORT WASHINGTON  0000   72     200/  9/ 16 1012.2
ATWATER BUOY     0100   53     180/ 10/ 12 1012.9F
MILWAUKEE LAKESH 0100   65     190/ 14/ 17   N/A
KENOSHA   LAKESH 0100   65     190/ 13/ 21 1012.5F
$$

TC  - TEMPERATURE IN CELSIUS
VSB - VISIBILITY IN STATUTE MILES
WCI - WIND CHILL INDEX
HX  - HEAT INDEX




USA.gov is the U.S. government's official web portal to all federal, state and local government web resources and services.